Ibadan Airport

Airport
ICAO code: 
DNIB
IATA Code: 
IBA
Summary
ICAO Region: 
AFI
Territory: 
Location: 
Ibadan, Oyo State
Serving: 
Ibadan
Elevation: 
728 ft
Coordinates: 
Aerial View: 
7° 21' 34.992" N, 3° 58' 32.988" E
Metar
Observation
DNIB 191100Z 12006KT 8000 NSC 31/08 Q1015
Station
Ibadan
Date/Time
2022-01-19 11:00:00
Wind direction
120°
Wind speed
06 kts
Lowest cloud amount
nil significant cloud
Temperature
31°C
Dew point
8°C
Humidity
23%
QNH
1015 hPa
Weather condition
n/a

Ibadan Airport is an airport serving Ibadan, the capital of the Oyo State of Nigeria.

Climatology

Tropical savanna climate (Köppen climate classification Aw)

Runways

Designator Length Width Surface Rops
5/23 2400 45 ASP No/No
Airport map: 
Aerial View: 

SKYbrary Partners:

Safety knowledge contributed by: